| time (UTC) | temp C | wind direction | speed KPH | gust KPH | rain 1hr cm | rain 24hr cm | rain mn cm | humidity % | barometer mb |
| 20260507123728 | 22 | 25 | 14.5 | 27.4 | 0.00 | 0.00 | 0.00 | 21 | 1016.1 |
| 20260507122220 | 23 | 20 | 11.3 | 24.1 | 0.00 | 0.00 | 0.00 | 21 | 1016.0 |
| 20260507120712 | 22 | 18 | 14.5 | 27.4 | 0.00 | 0.00 | 0.00 | 21 | 1016.1 |
| 20260507115206 | 22 | 21 | 17.7 | 30.6 | 0.00 | 0.00 | 0.00 | 21 | 1016.0 |
| 20260507113728 | 23 | 25 | 12.9 | 25.7 | 0.00 | 0.00 | 0.00 | 21 | 1016.0 |
| 20260507112151 | 23 | 18 | 12.9 | 25.7 | 0.00 | 0.00 | 0.00 | 21 | 1015.9 |
| 20260507110643 | 23 | 12 | 12.9 | 22.5 | 0.00 | 0.00 | 0.00 | 21 | 1016.1 |
| 20260507105145 | 24 | 19 | 9.7 | 20.9 | 0.00 | 0.00 | 0.00 | 21 | 1016.1 |
| 20260507103629 | 24 | 17 | 6.4 | 20.9 | 0.00 | 0.00 | 0.00 | 21 | 1016.1 |
| 20260507102121 | 23 | 13 | 9.7 | 22.5 | 0.00 | 0.00 | 0.00 | 21 | 1016.2 |
| 20260507100614 | 21 | 359 | 14.5 | 25.7 | 0.00 | 0.00 | 0.00 | 21 | 1016.1 |
| 20260507095107 | 22 | 358 | 12.9 | 22.5 | 0.00 | 0.00 | 0.00 | 21 | 1016.0 |
| 20260507093559 | 22 | 356 | 11.3 | 22.5 | 0.00 | 0.00 | 0.00 | 21 | 1015.8 |
| 20260507090544 | 28 | 128 | 3.2 | 8.0 | 0.00 | 0.00 | 0.00 | 21 | 1015.8 |
| 20260507085037 | 24 | 45 | 4.8 | 9.7 | 0.00 | 0.00 | 0.00 | 21 | 1015.7 |
| 20260507083528 | 23 | 39 | 6.4 | 12.9 | 0.00 | 0.00 | 0.00 | 21 | 1015.6 |
| 20260507082021 | 23 | 69 | 4.8 | 43.5 | 0.00 | 0.00 | 0.00 | 21 | 1015.6 |
| 20260507080514 | 21 | 47 | 8.0 | 16.1 | 0.00 | 0.00 | 0.00 | 21 | 1015.6 |
| 20260507075007 | 21 | 62 | 6.4 | 12.9 | 0.00 | 0.00 | 0.00 | 21 | 1015.5 |
| 20260507073459 | 20 | 63 | 8.0 | 12.9 | 0.00 | 0.00 | 0.00 | 21 | 1015.5 |
| 20260507071953 | 18 | 49 | 11.3 | 17.7 | 0.00 | 0.00 | 0.00 | 21 | 1015.4 |
| 20260507070444 | 19 | 52 | 9.7 | 17.7 | 0.00 | 0.00 | 0.00 | 21 | 1015.3 |
| 20260507064937 | 19 | 43 | 12.9 | 17.7 | 0.00 | 0.00 | 0.00 | 21 | 1015.1 |
| 20260507063429 | 17 | 50 | 12.9 | 17.7 | 0.00 | 0.00 | 0.00 | 21 | 1015.1 |
| 20260507061922 | 19 | 46 | 11.3 | 17.7 | 0.00 | 0.00 | 0.00 | 21 | 1015.1 |
| 20260507060414 | 18 | 44 | 12.9 | 20.9 | 0.00 | 0.00 | 0.00 | 21 | 1014.9 |
| 20260507054903 | 18 | 41 | 12.9 | 24.1 | 0.00 | 0.00 | 0.00 | 21 | 1014.8 |
| 20260507053344 | 18 | 43 | 14.5 | 22.5 | 0.00 | 0.00 | 0.00 | 21 | 1014.6 |
| 20260507051827 | 19 | 36 | 9.7 | 16.1 | 0.00 | 0.00 | 0.00 | 21 | 1014.7 |
| 20260507050258 | 17 | 44 | 9.7 | 17.7 | 0.00 | 0.00 | 0.00 | 21 | 1014.5 |
| 20260507044732 | 18 | 40 | 11.3 | 19.3 | 0.00 | 0.00 | 0.00 | 21 | 1014.3 |
| 20260507043207 | 18 | 37 | 12.9 | 24.1 | 0.00 | 0.00 | 0.00 | 21 | 1014.1 |
| 20260507041635 | 17 | 36 | 14.5 | 22.5 | 0.00 | 0.00 | 0.00 | 21 | 1014.0 |
| 20260507040055 | 20 | 28 | 11.3 | 19.3 | 0.00 | 0.00 | 0.00 | 21 | 1014.0 |
| 20260507034502 | 19 | 26 | 12.9 | 19.3 | 0.00 | 0.00 | 0.00 | 21 | 1013.8 |
| 20260507032916 | 20 | 21 | 9.7 | 17.7 | 0.00 | 0.00 | 0.00 | 21 | 1013.7 |
| 20260507031344 | 20 | 17 | 9.7 | 17.7 | 0.00 | 0.00 | 0.00 | 21 | 1013.6 |
| 20260507025818 | 21 | 20 | 6.4 | 14.5 | 0.00 | 0.00 | 0.00 | 21 | 1013.5 |
| 20260507022735 | 21 | 19 | 9.7 | 17.7 | 0.00 | 0.00 | 0.00 | 21 | 1013.4 |
| 20260507021216 | 20 | 16 | 9.7 | 17.7 | 0.00 | 0.00 | 0.00 | 21 | 1013.4 |
| 20260507015704 | 21 | 14 | 11.3 | 22.5 | 0.00 | 0.00 | 0.00 | 21 | 1013.2 |
| 20260507014152 | 20 | 14 | 14.5 | 24.1 | 0.00 | 0.00 | 0.00 | 21 | 1013.1 |
| 20260507012639 | 20 | 10 | 12.9 | 33.8 | 0.00 | 0.00 | 0.00 | 21 | 1013.1 |
| 20260507011131 | 19 | 8 | 16.1 | 30.6 | 0.00 | 0.00 | 0.00 | 21 | 1013.1 |
| 20260507005620 | 20 | 5 | 12.9 | 25.7 | 0.00 | 0.00 | 0.00 | 21 | 1013.1 |
| 20260507004105 | 19 | 13 | 16.1 | 30.6 | 0.00 | 0.00 | 0.00 | 21 | 1013.0 |
| 20260507002554 | 20 | 10 | 16.1 | 30.6 | 0.00 | 0.00 | 0.00 | 21 | 1013.1 |
| 20260507001046 | 19 | 359 | 19.3 | 33.8 | 0.00 | 0.00 | 0.00 | 21 | 1013.1 |
| 20260506235539 | 20 | 10 | 14.5 | 32.2 | 0.00 | 0.00 | 0.00 | 21 | 1013.2 |
| 20260506234025 | 20 | 2 | 16.1 | 27.4 | 0.00 | 0.00 | 0.00 | 21 | 1013.0 |
| 20260506232513 | 19 | 10 | 16.1 | 30.6 | 0.00 | 0.00 | 0.00 | 21 | 1012.9 |
| 20260506230957 | 19 | 12 | 16.1 | 32.2 | 0.00 | 0.00 | 0.00 | 21 | 1013.0 |
| 20260506225442 | 20 | 17 | 14.5 | 29.0 | 0.00 | 0.00 | 0.00 | 21 | 1012.9 |
| 20260506223923 | 20 | 8 | 16.1 | 25.7 | 0.00 | 0.00 | 0.00 | 21 | 1012.7 |
| 20260506222402 | 20 | 359 | 12.9 | 24.1 | 0.00 | 0.00 | 0.00 | 21 | 1012.9 |
| 20260506220845 | 20 | 358 | 14.5 | 29.0 | 0.00 | 0.00 | 0.00 | 21 | 1012.8 |
| 20260506215336 | 20 | 8 | 12.9 | 29.0 | 0.00 | 0.00 | 0.00 | 21 | 1012.7 |
| 20260506213826 | 20 | 12 | 12.9 | 29.0 | 0.00 | 0.00 | 0.00 | 21 | 1012.6 |
| 20260506212319 | 19 | 0 | 16.1 | 27.4 | 0.00 | 0.00 | 0.00 | 21 | 1012.7 |
| 20260506210807 | 20 | 0 | 16.1 | 25.7 | 0.00 | 0.00 | 0.00 | 21 | 1012.7 |
| 20260506205255 | 20 | 350 | 12.9 | 30.6 | 0.00 | 0.00 | 0.00 | 21 | 1012.6 |
| 20260506203745 | 20 | 0 | 12.9 | 24.1 | 0.00 | 0.00 | 0.00 | 21 | 1012.6 |
| 20260506202235 | 20 | 11 | 11.3 | 27.4 | 0.00 | 0.00 | 0.00 | 21 | 1012.4 |
| 20260506200724 | 20 | 17 | 14.5 | 27.4 | 0.00 | 0.00 | 0.00 | 21 | 1012.4 |
| 20260506195216 | 20 | 3 | 16.1 | 29.0 | 0.00 | 0.00 | 0.00 | 21 | 1012.2 |
| 20260506193704 | 20 | 1 | 14.5 | 25.7 | 0.00 | 0.00 | 0.00 | 21 | 1012.2 |
| 20260506192151 | 19 | 3 | 16.1 | 27.4 | 0.00 | 0.00 | 0.00 | 21 | 1011.9 |
| 20260506190639 | 20 | 351 | 14.5 | 30.6 | 0.00 | 0.00 | 0.00 | 21 | 1011.8 |
| 20260506185129 | 19 | 358 | 17.7 | 30.6 | 0.00 | 0.00 | 0.00 | 21 | 1011.8 |
| 20260506183619 | 20 | 7 | 11.3 | 32.2 | 0.00 | 0.00 | 0.00 | 21 | 1011.6 |
| 20260506182112 | 20 | 354 | 17.7 | 29.0 | 0.00 | 0.00 | 0.00 | 21 | 1011.6 |
| 20260506180604 | 21 | 357 | 11.3 | 30.6 | 0.00 | 0.00 | 0.00 | 21 | 1011.4 |
| 20260506175056 | 21 | 347 | 12.9 | 32.2 | 0.00 | 0.00 | 0.00 | 21 | 1011.3 |
| 20260506173549 | 21 | 10 | 16.1 | 30.6 | 0.00 | 0.00 | 0.00 | 21 | 1011.2 |
| 20260506172042 | 21 | 345 | 19.3 | 35.4 | 0.00 | 0.00 | 0.00 | 21 | 1011.0 |
| 20260506170535 | 20 | 355 | 17.7 | 32.2 | 0.00 | 0.00 | 0.00 | 21 | 1011.0 |
| 20260506165027 | 21 | 350 | 20.9 | 35.4 | 0.00 | 0.00 | 0.00 | 21 | 1010.9 |
| 20260506163520 | 21 | 1 | 19.3 | 33.8 | 0.00 | 0.00 | 0.00 | 21 | 1010.9 |
| 20260506162012 | 21 | 0 | 19.3 | 32.2 | 0.00 | 0.00 | 0.00 | 21 | 1010.8 |
| 20260506160505 | 22 | 7 | 17.7 | 37.0 | 0.00 | 0.00 | 0.00 | 21 | 1010.8 |
| 20260506154956 | 23 | 16 | 12.9 | 35.4 | 0.00 | 0.00 | 0.00 | 21 | 1010.8 |
| 20260506153448 | 21 | 353 | 20.9 | 37.0 | 0.00 | 0.00 | 0.00 | 21 | 1010.8 |
| 20260506151941 | 22 | 0 | 16.1 | 32.2 | 0.00 | 0.00 | 0.00 | 21 | 1010.7 |
| 20260506150434 | 21 | 357 | 20.9 | 37.0 | 0.00 | 0.00 | 0.00 | 21 | 1010.7 |
| 20260506144926 | 23 | 359 | 17.7 | 35.4 | 0.00 | 0.00 | 0.00 | 21 | 1010.7 |
| 20260506143419 | 21 | 0 | 20.9 | 38.6 | 0.00 | 0.00 | 0.00 | 21 | 1010.4 |
| 20260506141912 | 22 | 0 | 19.3 | 40.2 | 0.00 | 0.00 | 0.00 | 21 | 1010.5 |
| 20260506140405 | 21 | 1 | 22.5 | 35.4 | 0.00 | 0.00 | 0.00 | 21 | 1010.6 |
| 20260506134857 | 21 | 4 | 22.5 | 35.4 | 0.00 | 0.00 | 0.00 | 21 | 1010.3 |
| 20260506133350 | 22 | 344 | 20.9 | 33.8 | 0.00 | 0.00 | 0.00 | 21 | 1010.5 |
| 20260506131843 | 21 | 6 | 17.7 | 33.8 | 0.00 | 0.00 | 0.00 | 21 | 1010.6 |
| 20260506130336 | 22 | 349 | 17.7 | 35.4 | 0.00 | 0.00 | 0.00 | 21 | 1010.7 |